Weather History for KCKC - December, 2012

Change the Weather History Date:

Sunday, December 16, 2012

  Actual Average Record
Temperature  
Mean Temperature 26 °F -  
Max Temperature 32 °F 20 °F 37 °F (1997)
Min Temperature 19 °F 7 °F -23 °F (2008)
Degree Days  
Heating Degree Days 40    
Moisture  
Dew Point 24 °F    
Average Humidity 89    
Maximum Humidity 93    
Minimum Humidity 80    
Precipitation  
Precipitation 0.02 in - - ()
Sea Level Pressure  
Sea Level Pressure 29.54 in    
Wind  
Wind Speed 5 mph (NW)    
Max Wind Speed 16 mph    
Max Gust Speed 24 mph    
Visibility 6 miles    
Events Snow    
Averages and records for this station are not official NWS values.
T = Trace of Precipitation, MM = Missing Value Source: NWS Daily Summary

Daily Weather History Graph

Daily Weather History Graph

Search for Another Location

Airport or City:

Trip Planner

Search our weather history database for the weather conditions in past years. The results will help you decide how hot, cold, wet, or windy it might be!

Date:

Astronomy

Dec. 16, 2012 Rise Set
Actual Time 7:45 AM CST 4:09 PM CST
Civil Twilight 7:08 AM CST 4:46 PM CST
Nautical Twilight 6:29 AM CST 5:25 PM CST
Astronomical Twilight 5:51 AM CST 6:03 PM CST
Moon 10:05 AM CST (12/16) 8:39 PM CST (12/16)
Length of Visible Light 9h 37m
Length of Day
8h 24m
Waxing Crescent, 16% of the Moon is Illuminated
Dec 16
Waxing Crescent
Dec 19
First Quarter
Dec 28
Full
Jan 4
Last Quarter
Jan 11
New

Hourly Weather History & Observations

Time (CST) Temp. Windchill Dew Point Humidity Pressure Visibility Wind Dir Wind Speed Gust Speed Precip Events Conditions
12:13 AM 30.2 °F - 28.4 °F 93% 29.51 in 2.0 mi Calm Calm - N/A Snow Light Snow
12:54 AM 30.2 °F - 28.4 °F 93% 29.50 in 2.0 mi Calm Calm - N/A Snow Light Snow
1:13 AM 30.2 °F - 28.4 °F 93% 29.50 in 1.0 mi Calm Calm - N/A Snow Light Snow
1:34 AM 30.2 °F - 28.4 °F 93% 29.49 in 1.0 mi Calm Calm - N/A Snow Light Snow
2:13 AM 30.2 °F 26.7 °F 28.4 °F 93% 29.49 in 1.8 mi North 3.5 mph - N/A Snow Light Snow
2:53 AM 30.2 °F 26.7 °F 28.4 °F 93% 29.49 in 2.5 mi North 3.5 mph - 0.01 in Snow Light Snow
3:14 AM 30.2 °F 26.7 °F 28.4 °F 93% 29.49 in 4.0 mi North 3.5 mph - N/A Snow Light Snow
3:33 AM 30.2 °F 26.7 °F 28.4 °F 93% 29.49 in 3.0 mi NNW 3.5 mph - N/A Snow Light Snow
3:54 AM 30.2 °F - 28.4 °F 93% 29.49 in 2.5 mi Calm Calm - N/A Snow Light Snow
4:14 AM 30.2 °F - 28.4 °F 93% 29.49 in 2.5 mi Calm Calm - N/A Snow Light Snow
4:33 AM 30.2 °F - 28.4 °F 93% 29.49 in 2.5 mi Calm Calm - N/A Snow Light Snow
4:54 AM 30.2 °F 26.7 °F 28.4 °F 93% 29.49 in 3.0 mi NNW 3.5 mph - N/A Snow Light Snow
5:14 AM 30.2 °F 25.4 °F 28.4 °F 93% 29.49 in 5.0 mi NNW 4.6 mph - 0.01 in Snow Light Snow
5:33 AM 30.2 °F 26.7 °F 28.4 °F 93% 29.49 in 3.0 mi NW 3.5 mph - 0.01 in Snow Light Snow
5:53 AM 30.2 °F - 28.4 °F 93% 29.50 in 3.0 mi Calm Calm - 0.01 in Snow Light Snow
6:14 AM 30.2 °F - 28.4 °F 93% 29.50 in 3.0 mi Calm Calm - N/A   Overcast
6:33 AM 30.2 °F - 28.4 °F 93% 29.51 in 4.0 mi Calm Calm - N/A   Overcast
7:14 AM 30.2 °F - 28.4 °F 93% 29.51 in 2.5 mi Calm Calm - N/A Snow Light Snow
7:33 AM 30.2 °F - 28.4 °F 93% 29.51 in 3.0 mi Calm Calm - N/A Snow Light Snow
7:53 AM 30.2 °F - 28.4 °F 93% 29.50 in 5.0 mi Calm Calm - N/A Snow Light Snow
8:14 AM 30.2 °F - 28.4 °F 93% 29.51 in 7.0 mi Calm Calm - N/A Snow Light Snow
8:34 AM 30.2 °F 26.7 °F 28.4 °F 93% 29.51 in 5.0 mi NW 3.5 mph - N/A Snow Light Snow
8:53 AM 30.2 °F 25.4 °F 28.4 °F 93% 29.51 in 7.0 mi NW 4.6 mph - N/A Snow Light Snow
9:14 AM 30.2 °F 26.7 °F 28.4 °F 93% 29.52 in 4.0 mi NW 3.5 mph - N/A Snow Light Snow
9:34 AM 32.0 °F 26.4 °F 28.4 °F 87% 29.52 in 4.0 mi WNW 5.8 mph - N/A Snow Light Snow
9:53 AM 32.0 °F 27.5 °F 28.4 °F 87% 29.53 in 4.0 mi NW 4.6 mph - N/A Snow Light Snow
10:14 AM 32.0 °F 25.6 °F 28.4 °F 87% 29.53 in 7.0 mi NW 6.9 mph - N/A Snow Light Snow
10:34 AM 32.0 °F 24.2 °F 28.4 °F 87% 29.53 in 10.0 mi NW 9.2 mph - N/A   Overcast
10:53 AM 32.0 °F 26.4 °F 28.4 °F 87% 29.53 in 10.0 mi NW 5.8 mph - N/A   Overcast
11:14 AM 32.0 °F 23.6 °F 28.4 °F 87% 29.53 in 10.0 mi NW 10.4 mph 16.1 mph N/A   Overcast
11:33 AM 32.0 °F 24.8 °F 28.4 °F 87% 29.53 in 10.0 mi NW 8.1 mph - N/A   Overcast
11:54 AM 32.0 °F 24.2 °F 28.4 °F 87% 29.53 in 10.0 mi NW 9.2 mph - N/A   Overcast
12:14 PM 32.0 °F 25.6 °F 28.4 °F 87% 29.52 in 5.0 mi NW 6.9 mph - N/A   Overcast
12:33 PM 30.2 °F 23.4 °F 28.4 °F 93% 29.53 in 10.0 mi WNW 6.9 mph - N/A   Overcast
12:54 PM 30.2 °F 22.6 °F 28.4 °F 93% 29.52 in 7.0 mi NW 8.1 mph - N/A   Overcast
1:14 PM 30.2 °F 23.4 °F 28.4 °F 93% 29.52 in 5.0 mi WNW 6.9 mph - N/A   Overcast
1:33 PM 30.2 °F 22.6 °F 26.6 °F 86% 29.52 in 7.0 mi NW 8.1 mph 17.3 mph N/A   Overcast
1:54 PM 30.2 °F 21.3 °F 26.6 °F 86% 29.52 in 5.0 mi NW 10.4 mph - N/A   Overcast
2:14 PM 28.4 °F 19.1 °F 24.8 °F 86% 29.51 in 10.0 mi NW 10.4 mph 18.4 mph N/A   Overcast
2:34 PM 28.4 °F 18.5 °F 24.8 °F 86% 29.52 in 10.0 mi WNW 11.5 mph 18.4 mph N/A   Overcast
2:53 PM 28.4 °F 17.5 °F 24.8 °F 86% 29.53 in 10.0 mi NW 13.8 mph 20.7 mph N/A   Overcast
3:14 PM 28.4 °F 17.5 °F 24.8 °F 86% 29.54 in 10.0 mi NW 13.8 mph 18.4 mph N/A   Overcast
3:33 PM 26.6 °F 16.8 °F 24.8 °F 93% 29.54 in 10.0 mi NW 10.4 mph - N/A   Overcast
4:13 PM 26.6 °F 17.5 °F 21.2 °F 80% 29.55 in 7.0 mi NW 9.2 mph - N/A   Overcast
4:33 PM 26.6 °F 16.8 °F 21.2 °F 80% 29.56 in 10.0 mi NW 10.4 mph 16.1 mph N/A   Overcast
4:54 PM 24.8 °F 14.0 °F 21.2 °F 86% 29.56 in 7.0 mi WNW 11.5 mph 18.4 mph N/A   Overcast
5:13 PM 24.8 °F 14.0 °F 19.4 °F 80% 29.57 in 7.0 mi WNW 11.5 mph - N/A Snow Light Snow
5:33 PM 24.8 °F 15.3 °F 19.4 °F 80% 29.58 in 5.0 mi NW 9.2 mph - N/A Snow Light Snow
5:54 PM 23.0 °F 12.4 °F 19.4 °F 86% 29.58 in 4.0 mi NW 10.4 mph 18.4 mph N/A Snow Light Snow
6:13 PM 23.0 °F 11.7 °F 19.4 °F 86% 29.59 in 5.0 mi WNW 11.5 mph 18.4 mph N/A Snow Light Snow
6:34 PM 21.2 °F 11.7 °F 19.4 °F 93% 29.59 in 5.0 mi NW 8.1 mph 17.3 mph N/A Snow Light Snow
6:54 PM 21.2 °F 9.5 °F 17.6 °F 86% 29.59 in 3.0 mi NW 11.5 mph 17.3 mph N/A Snow Light Snow
7:13 PM 21.2 °F 8.9 °F 17.6 °F 86% 29.59 in 4.0 mi NW 12.7 mph 21.9 mph N/A Snow Light Snow
7:34 PM 21.2 °F 8.3 °F 17.6 °F 86% 29.59 in 5.0 mi NW 13.8 mph 20.7 mph N/A Snow Light Snow
7:54 PM 21.2 °F 9.5 °F 17.6 °F 86% 29.58 in 5.0 mi NW 11.5 mph 19.6 mph N/A Snow Light Snow
8:14 PM 21.2 °F 8.9 °F 17.6 °F 86% 29.59 in 5.0 mi NW 12.7 mph 23.0 mph N/A Snow Light Snow
8:33 PM 19.4 °F 5.5 °F 15.8 °F 86% 29.59 in 5.0 mi NW 15.0 mph 24.2 mph N/A Snow Light Snow
8:54 PM 19.4 °F 6.0 °F 15.8 °F 86% 29.59 in 5.0 mi NW 13.8 mph 21.9 mph N/A Snow Light Snow
9:14 PM 19.4 °F 5.5 °F 15.8 °F 86% 29.59 in 7.0 mi NW 15.0 mph 20.7 mph N/A Snow Light Snow
9:34 PM 19.4 °F 5.0 °F 15.8 °F 86% 29.59 in 7.0 mi NW 16.1 mph 21.9 mph N/A Snow Light Snow
9:53 PM 19.4 °F 7.2 °F 15.8 °F 86% 29.59 in 5.0 mi NW 11.5 mph 21.9 mph N/A Snow Light Snow
10:14 PM 19.4 °F 8.6 °F 15.8 °F 86% 29.59 in 10.0 mi NW 9.2 mph 21.9 mph N/A Snow Light Snow
10:34 PM 19.4 °F 8.6 °F 15.8 °F 86% 29.59 in 10.0 mi NW 9.2 mph 19.6 mph N/A Snow Light Snow
10:54 PM 19.4 °F 12.8 °F 15.8 °F 86% 29.59 in 10.0 mi WNW 4.6 mph - N/A   Overcast
11:13 PM 19.4 °F 8.6 °F 15.8 °F 86% 29.59 in 10.0 mi NW 9.2 mph - N/A   Overcast
11:53 PM 19.4 °F 10.4 °F 15.8 °F 86% 29.59 in 10.0 mi WNW 6.9 mph 17.3 mph N/A   Overcast